Weather History for Audubon, IA

Change the Weather History Date:

Sunday, August 19, 2012

  Actual Average Record
Temperature  
Mean Temperature 58 °F -  
Max Temperature 75 °F 84 °F 99 °F (1955)
Min Temperature 42 °F 60 °F 42 °F (2004)
Degree Days  
Heating Degree Days 6    
Growing Degree Days 8 (Base 50)    
Moisture  
Dew Point 49 °F    
Average Humidity 70    
Maximum Humidity 94    
Minimum Humidity 38    
Precipitation  
Precipitation 0.00 in - - ()
Sea Level Pressure  
Sea Level Pressure 30.06 in    
Wind  
Wind Speed 2 mph (NNW)    
Max Wind Speed 13 mph    
Max Gust Speed 18 mph    
Visibility 10 miles    
Events      
Averages and records for this station are not official NWS values.
T = Trace of Precipitation, MM = Missing Value Source: NWS Daily Summary

Daily Weather History Graph

Daily Weather History Graph

Search for Another Location

Airport:

Trip Planner

Search our weather history database for the weather conditions in past years. The results will help you decide how hot, cold, wet, or windy it might be!

Date:

Astronomy

Aug. 19, 2012 Rise Set
Actual Time 6:32 AM CDT 8:12 PM CDT
Civil Twilight 6:03 AM CDT 8:42 PM CDT
Nautical Twilight 5:27 AM CDT 9:17 PM CDT
Astronomical Twilight 4:49 AM CDT 9:55 PM CDT
Moon 8:51 AM CDT 8:58 PM CDT
Length of Visible Light 14h 38m
Length of Day
13h 40m
Waxing Crescent, 5% of the Moon is Illuminated
Aug 19
Waxing Crescent
Aug 24
First Quarter
Aug 31
Full
Sep 8
Last Quarter
Sep 15
New

Hourly Weather History & Observations

Time (CDT) Temp. Windchill Dew Point Humidity Pressure Visibility Wind Dir Wind Speed Gust Speed Precip Events Conditions
12:15 AM 50.0 °F - 46.4 °F 87% 30.06 in 10.0 mi Calm Calm - N/A   Unknown
12:35 AM 48.2 °F - 46.4 °F 93% 30.06 in 7.0 mi Calm Calm - N/A   Unknown
12:55 AM 50.0 °F - 46.4 °F 87% 30.06 in 7.0 mi Calm Calm - N/A   Unknown
1:15 AM 48.2 °F - 44.6 °F 87% 30.06 in 7.0 mi Calm Calm - N/A   Unknown
1:35 AM 48.2 °F - 44.6 °F 87% 30.05 in 7.0 mi Calm Calm - N/A   Unknown
1:55 AM 46.4 °F - 44.6 °F 93% 30.06 in 7.0 mi Calm Calm - N/A   Clear
2:15 AM 48.2 °F - 44.6 °F 87% 30.06 in 10.0 mi NNW 3.5 mph - N/A   Clear
2:35 AM 48.2 °F - 44.6 °F 87% 30.06 in 10.0 mi Calm Calm - N/A   Clear
2:55 AM 46.4 °F - 42.8 °F 87% 30.06 in 7.0 mi Calm Calm - N/A   Clear
3:15 AM 44.6 °F - 42.8 °F 93% 30.06 in 7.0 mi Calm Calm - N/A   Clear
3:35 AM 44.6 °F - 41.0 °F 87% 30.06 in 7.0 mi Calm Calm - N/A   Clear
3:55 AM 44.6 °F - 42.8 °F 93% 30.06 in 10.0 mi Calm Calm - N/A   Clear
4:15 AM 44.6 °F - 42.8 °F 93% 30.06 in 10.0 mi Calm Calm - N/A   Clear
4:35 AM 42.8 °F - 41.0 °F 93% 30.06 in 7.0 mi Calm Calm - N/A   Clear
4:55 AM 42.8 °F - 39.2 °F 87% 30.06 in 10.0 mi Calm Calm - N/A   Clear
5:15 AM 42.8 °F - 39.2 °F 87% 30.06 in 10.0 mi Calm Calm - N/A   Clear
5:35 AM 42.8 °F - 39.2 °F 87% 30.06 in 10.0 mi Calm Calm - N/A   Clear
5:55 AM 44.6 °F 41.4 °F 42.8 °F 93% 30.07 in 7.0 mi NNW 5.8 mph - N/A   Clear
6:15 AM 44.6 °F - 42.8 °F 93% 30.07 in 7.0 mi Calm Calm - N/A   Clear
6:35 AM 46.4 °F 45.2 °F 44.6 °F 93% 30.07 in 10.0 mi NNW 3.5 mph - N/A   Clear
6:55 AM 46.4 °F 45.2 °F 42.8 °F 87% 30.08 in 10.0 mi NW 3.5 mph - N/A   Clear
7:15 AM 46.4 °F 45.2 °F 44.6 °F 93% 30.08 in 10.0 mi NNW 3.5 mph - N/A   Clear
7:35 AM 48.2 °F - 46.4 °F 93% 30.09 in 10.0 mi North 3.5 mph - N/A   Clear
7:55 AM 51.8 °F - 48.2 °F 88% 30.09 in 10.0 mi Calm Calm - N/A   Clear
8:35 AM 55.4 °F - 53.6 °F 94% 30.10 in 10.0 mi NNW 4.6 mph - N/A   Unknown
8:55 AM 57.2 °F - 55.4 °F 94% 30.10 in 10.0 mi NNW 3.5 mph - N/A   Unknown
9:35 AM 62.6 °F - 59.0 °F 88% 30.09 in 10.0 mi WNW 3.5 mph - N/A   Unknown
9:55 AM 64.4 °F - 60.8 °F 88% 30.09 in 10.0 mi Calm Calm - N/A   Unknown
10:15 AM 66.2 °F - 59.0 °F 78% 30.09 in 10.0 mi Calm Calm - N/A   Unknown
10:35 AM 68.0 °F - 57.2 °F 68% 30.09 in 10.0 mi North 3.5 mph - N/A   Unknown
10:55 AM 68.0 °F - 55.4 °F 64% 30.09 in 10.0 mi NNW 5.8 mph - N/A   Unknown
11:15 AM 69.8 °F - 53.6 °F 56% 30.09 in 10.0 mi North 3.5 mph - N/A   Unknown
11:35 AM 69.8 °F - 53.6 °F 56% 30.10 in 10.0 mi NNW 3.5 mph - N/A   Unknown
11:55 AM 73.4 °F - 51.8 °F 47% 30.10 in 10.0 mi NW 6.9 mph - N/A   Unknown
12:15 PM 71.6 °F - 51.8 °F 50% 30.10 in 10.0 mi North 8.1 mph - N/A   Unknown
12:35 PM 73.4 °F - 51.8 °F 47% 30.10 in 10.0 mi North 12.7 mph 16.1 mph N/A   Unknown
12:55 PM 69.8 °F - 51.8 °F 53% 30.10 in 10.0 mi NNW 11.5 mph 17.3 mph N/A   Unknown
1:15 PM 69.8 °F - 50.0 °F 49% 30.10 in 10.0 mi NNW 12.7 mph 18.4 mph N/A   Unknown
1:35 PM 73.4 °F - 51.8 °F 47% 30.09 in 10.0 mi North 10.4 mph - N/A   Unknown
1:55 PM 73.4 °F - 51.8 °F 47% 30.08 in 10.0 mi NW 12.7 mph 16.1 mph N/A   Unknown
2:15 PM 75.2 °F - 50.0 °F 41% 30.08 in 10.0 mi NNW 10.4 mph - N/A   Unknown
2:35 PM 75.2 °F - 51.8 °F 44% 30.07 in 10.0 mi North 9.2 mph 16.1 mph N/A   Unknown
2:55 PM 75.2 °F - 50.0 °F 41% 30.06 in 10.0 mi NW 8.1 mph - N/A   Unknown
3:15 PM 75.2 °F - 50.0 °F 41% 30.05 in 10.0 mi NNW 5.8 mph - N/A   Unknown
3:35 PM 73.4 °F - 48.2 °F 41% 30.05 in 10.0 mi NNW 6.9 mph 17.3 mph N/A   Unknown
3:55 PM 75.2 °F - 50.0 °F 41% 30.04 in 10.0 mi NW 4.6 mph - N/A   Unknown
4:15 PM 73.4 °F - 48.2 °F 41% 30.03 in 10.0 mi NNW 8.1 mph - N/A   Unknown
4:35 PM 75.2 °F - 51.8 °F 44% 30.03 in 10.0 mi WNW 6.9 mph - N/A   Unknown
4:55 PM 75.2 °F - 48.2 °F 38% 30.03 in 10.0 mi NW 6.9 mph - N/A   Unknown
5:15 PM 75.2 °F - 50.0 °F 41% 30.02 in 10.0 mi NW 4.6 mph - N/A   Unknown
5:55 PM 75.2 °F - 48.2 °F 38% 30.01 in 10.0 mi West 4.6 mph - N/A   Unknown
6:15 PM 75.2 °F - 48.2 °F 38% 30.01 in 10.0 mi NW 6.9 mph - N/A   Unknown
6:35 PM 75.2 °F - 48.2 °F 38% 30.00 in 10.0 mi NW 3.5 mph - N/A   Unknown
6:55 PM 73.4 °F - 48.2 °F 41% 30.00 in 10.0 mi NNW 8.1 mph - N/A   Unknown
7:15 PM 73.4 °F - 48.2 °F 41% 30.01 in 10.0 mi Calm Calm - N/A   Unknown
7:35 PM 71.6 °F - 50.0 °F 46% 30.01 in 10.0 mi NW 3.5 mph - N/A   Unknown
7:55 PM 68.0 °F - 50.0 °F 52% 30.01 in 10.0 mi Calm Calm - N/A   Unknown
8:35 PM 60.8 °F - 51.8 °F 72% 30.02 in 10.0 mi Calm Calm - N/A   Unknown
8:55 PM 60.8 °F - 53.6 °F 77% 30.02 in 10.0 mi Calm Calm - N/A   Unknown
9:15 PM 59.0 °F - 53.6 °F 82% 30.02 in 10.0 mi Calm Calm - N/A   Unknown
9:35 PM 57.2 °F - 53.6 °F 88% 30.03 in 10.0 mi Calm Calm - N/A   Unknown
9:55 PM 59.0 °F - 53.6 °F 82% 30.03 in 10.0 mi Calm Calm - N/A   Unknown
10:15 PM 57.2 °F - 53.6 °F 88% 30.03 in 10.0 mi Calm Calm - N/A   Unknown
10:35 PM 55.4 °F - 51.8 °F 88% 30.04 in 10.0 mi Calm Calm - N/A   Unknown
10:55 PM 55.4 °F - 50.0 °F 82% 30.04 in 10.0 mi Calm Calm - N/A   Unknown
11:15 PM 53.6 °F - 48.2 °F 82% 30.04 in 10.0 mi Calm Calm - N/A   Unknown
11:55 PM 51.8 °F - 48.2 °F 88% 30.04 in 10.0 mi Calm Calm - N/A   Unknown